owner,sensor,date,latitude,longitude,vertical_datum,sea_water_temperature,qcFlag 
COMPS,ioos:station:USF.COMPS:ANC:1,2009-06-20T11:00:00Z,28.1930,-82.7890,-1.0,31.98,2 
COMPS,ioos:station:USF.COMPS:ANC:1,2009-06-20T11:06:00Z,28.1930,-82.7890,-1.0,31.96,2 
COMPS,ioos:station:USF.COMPS:ANC:1,2009-06-20T11:12:00Z,28.1930,-82.7890,-1.0,31.95,2 
COMPS,ioos:station:USF.COMPS:ANC:1,2009-06-20T11:18:00Z,28.1930,-82.7890,-1.0,31.94,2 
COMPS,ioos:station:USF.COMPS:ANC:1,2009-06-20T11:24:00Z,28.1930,-82.7890,-1.0,31.92,2 
COMPS,ioos:station:USF.COMPS:ANC:1,2009-06-20T11:30:00Z,28.1930,-82.7890,-1.0,31.91,2 
COMPS,ioos:station:USF.COMPS:ANC:1,2009-06-20T11:36:00Z,28.1930,-82.7890,-1.0,31.91,2 
COMPS,ioos:station:USF.COMPS:ANC:1,2009-06-20T11:42:00Z,28.1930,-82.7890,-1.0,31.91,2 
COMPS,ioos:station:USF.COMPS:ANC:1,2009-06-20T11:48:00Z,28.1930,-82.7890,-1.0,31.9,2 
COMPS,ioos:station:USF.COMPS:ANC:1,2009-06-20T11:54:00Z,28.1930,-82.7890,-1.0,31.9,2 
COMPS,ioos:station:USF.COMPS:ANC:1,2009-06-20T12:00:00Z,28.1930,-82.7890,-1.0,31.89,2 
COMPS,ioos:station:USF.COMPS:ANC:1,2009-06-20T12:06:00Z,28.1930,-82.7890,-1.0,31.89,2 
COMPS,ioos:station:USF.COMPS:ANC:1,2009-06-20T12:12:00Z,28.1930,-82.7890,-1.0,31.88,2 
COMPS,ioos:station:USF.COMPS:ANC:1,2009-06-20T12:18:00Z,28.1930,-82.7890,-1.0,31.88,2 
COMPS,ioos:station:USF.COMPS:ANC:1,2009-06-20T12:24:00Z,28.1930,-82.7890,-1.0,31.88,2 
COMPS,ioos:station:USF.COMPS:ANC:1,2009-06-20T12:30:00Z,28.1930,-82.7890,-1.0,31.85,2 
COMPS,ioos:station:USF.COMPS:ANC:1,2009-06-20T12:36:00Z,28.1930,-82.7890,-1.0,31.81,2 
COMPS,ioos:station:USF.COMPS:ANC:1,2009-06-20T12:42:00Z,28.1930,-82.7890,-1.0,31.79,2 
COMPS,ioos:station:USF.COMPS:ANC:1,2009-06-20T12:48:00Z,28.1930,-82.7890,-1.0,31.76,2 
COMPS,ioos:station:USF.COMPS:ANC:1,2009-06-20T12:54:00Z,28.1930,-82.7890,-1.0,31.76,2 
COMPS,ioos:station:USF.COMPS:ANC:1,2009-06-20T13:00:00Z,28.1930,-82.7890,-1.0,31.76,2 
COMPS,ioos:station:USF.COMPS:ANC:1,2009-06-20T13:06:00Z,28.1930,-82.7890,-1.0,31.75,2 
COMPS,ioos:station:USF.COMPS:ANC:1,2009-06-20T13:12:00Z,28.1930,-82.7890,-1.0,31.76,2 
COMPS,ioos:station:USF.COMPS:ANC:1,2009-06-20T13:18:00Z,28.1930,-82.7890,-1.0,31.73,2 
COMPS,ioos:station:USF.COMPS:ANC:1,2009-06-20T13:24:00Z,28.1930,-82.7890,-1.0,31.71,2 
COMPS,ioos:station:USF.COMPS:ANC:1,2009-06-20T13:30:00Z,28.1930,-82.7890,-1.0,31.7,2 
COMPS,ioos:station:USF.COMPS:ANC:1,2009-06-20T13:36:00Z,28.1930,-82.7890,-1.0,31.69,2 
COMPS,ioos:station:USF.COMPS:ANC:1,2009-06-20T13:42:00Z,28.1930,-82.7890,-1.0,31.68,2 
COMPS,ioos:station:USF.COMPS:ANC:1,2009-06-20T13:48:00Z,28.1930,-82.7890,-1.0,31.66,2 
COMPS,ioos:station:USF.COMPS:ANC:1,2009-06-20T13:54:00Z,28.1930,-82.7890,-1.0,31.66,2 
COMPS,ioos:station:USF.COMPS:ANC:1,2009-06-20T14:00:00Z,28.1930,-82.7890,-1.0,31.66,2 
COMPS,ioos:station:USF.COMPS:ANC:1,2009-06-20T14:06:00Z,28.1930,-82.7890,-1.0,31.66,2 
COMPS,ioos:station:USF.COMPS:ANC:1,2009-06-20T14:12:00Z,28.1930,-82.7890,-1.0,31.65,2 
COMPS,ioos:station:USF.COMPS:ANC:1,2009-06-20T14:18:00Z,28.1930,-82.7890,-1.0,31.65,2 
COMPS,ioos:station:USF.COMPS:ANC:1,2009-06-20T14:24:00Z,28.1930,-82.7890,-1.0,31.66,2 
COMPS,ioos:station:USF.COMPS:ANC:1,2009-06-20T14:30:00Z,28.1930,-82.7890,-1.0,31.66,2 
COMPS,ioos:station:USF.COMPS:ANC:1,2009-06-20T14:36:00Z,28.1930,-82.7890,-1.0,31.67,2 
COMPS,ioos:station:USF.COMPS:ANC:1,2009-06-20T14:42:00Z,28.1930,-82.7890,-1.0,31.68,2 
COMPS,ioos:station:USF.COMPS:ANC:1,2009-06-20T14:48:00Z,28.1930,-82.7890,-1.0,31.68,2 
COMPS,ioos:station:USF.COMPS:ANC:1,2009-06-20T14:54:00Z,28.1930,-82.7890,-1.0,31.68,2 
COMPS,ioos:station:USF.COMPS:ANC:1,2009-06-20T15:00:00Z,28.1930,-82.7890,-1.0,31.69,2 
COMPS,ioos:station:USF.COMPS:ANC:1,2009-06-20T15:06:00Z,28.1930,-82.7890,-1.0,31.7,2 
COMPS,ioos:station:USF.COMPS:ANC:1,2009-06-20T15:12:00Z,28.1930,-82.7890,-1.0,31.71,2 
COMPS,ioos:station:USF.COMPS:ANC:1,2009-06-20T15:18:00Z,28.1930,-82.7890,-1.0,31.72,2 
COMPS,ioos:station:USF.COMPS:ANC:1,2009-06-20T15:24:00Z,28.1930,-82.7890,-1.0,31.74,2 
COMPS,ioos:station:USF.COMPS:ANC:1,2009-06-20T15:30:00Z,28.1930,-82.7890,-1.0,31.75,2 
COMPS,ioos:station:USF.COMPS:ANC:1,2009-06-20T15:36:00Z,28.1930,-82.7890,-1.0,31.76,2 
COMPS,ioos:station:USF.COMPS:ANC:1,2009-06-20T15:42:00Z,28.1930,-82.7890,-1.0,31.76,2 
COMPS,ioos:station:USF.COMPS:ANC:1,2009-06-20T15:48:00Z,28.1930,-82.7890,-1.0,31.75,2 
COMPS,ioos:station:USF.COMPS:ANC:1,2009-06-20T15:54:00Z,28.1930,-82.7890,-1.0,31.75,2 
COMPS,ioos:station:USF.COMPS:ANC:1,2009-06-20T16:00:00Z,28.1930,-82.7890,-1.0,31.74,2 
COMPS,ioos:station:USF.COMPS:ANC:1,2009-06-20T16:06:00Z,28.1930,-82.7890,-1.0,31.75,2 
COMPS,ioos:station:USF.COMPS:ANC:1,2009-06-20T16:12:00Z,28.1930,-82.7890,-1.0,31.75,2 
COMPS,ioos:station:USF.COMPS:ANC:1,2009-06-20T16:18:00Z,28.1930,-82.7890,-1.0,31.76,2 
COMPS,ioos:station:USF.COMPS:ANC:1,2009-06-20T16:24:00Z,28.1930,-82.7890,-1.0,31.78,2 
COMPS,ioos:station:USF.COMPS:ANC:1,2009-06-20T16:30:00Z,28.1930,-82.7890,-1.0,31.83,2 
COMPS,ioos:station:USF.COMPS:ANC:1,2009-06-20T16:36:00Z,28.1930,-82.7890,-1.0,31.88,2 
COMPS,ioos:station:USF.COMPS:ANC:1,2009-06-20T16:42:00Z,28.1930,-82.7890,-1.0,31.94,2 
COMPS,ioos:station:USF.COMPS:ANC:1,2009-06-20T16:48:00Z,28.1930,-82.7890,-1.0,32.0,2 
COMPS,ioos:station:USF.COMPS:ANC:1,2009-06-20T16:54:00Z,28.1930,-82.7890,-1.0,32.07,2 
COMPS,ioos:station:USF.COMPS:ANC:1,2009-06-20T17:00:00Z,28.1930,-82.7890,-1.0,32.13,2 
COMPS,ioos:station:USF.COMPS:ANC:1,2009-06-20T17:06:00Z,28.1930,-82.7890,-1.0,32.18,2 
COMPS,ioos:station:USF.COMPS:ANC:1,2009-06-20T17:12:00Z,28.1930,-82.7890,-1.0,32.22,2 
COMPS,ioos:station:USF.COMPS:ANC:1,2009-06-20T17:18:00Z,28.1930,-82.7890,-1.0,32.25,2 
COMPS,ioos:station:USF.COMPS:ANC:1,2009-06-20T17:24:00Z,28.1930,-82.7890,-1.0,32.25,2 
COMPS,ioos:station:USF.COMPS:ANC:1,2009-06-20T17:30:00Z,28.1930,-82.7890,-1.0,32.26,2 
COMPS,ioos:station:USF.COMPS:ANC:1,2009-06-20T17:36:00Z,28.1930,-82.7890,-1.0,32.26,2 
COMPS,ioos:station:USF.COMPS:ANC:1,2009-06-20T17:42:00Z,28.1930,-82.7890,-1.0,32.27,2 
COMPS,ioos:station:USF.COMPS:ANC:1,2009-06-20T17:48:00Z,28.1930,-82.7890,-1.0,32.27,2 
COMPS,ioos:station:USF.COMPS:ANC:1,2009-06-20T17:54:00Z,28.1930,-82.7890,-1.0,32.28,2 
COMPS,ioos:station:USF.COMPS:ANC:1,2009-06-20T18:00:00Z,28.1930,-82.7890,-1.0,32.29,2 
COMPS,ioos:station:USF.COMPS:ANC:1,2009-06-20T18:06:00Z,28.1930,-82.7890,-1.0,32.3,2 
COMPS,ioos:station:USF.COMPS:ANC:1,2009-06-20T18:12:00Z,28.1930,-82.7890,-1.0,32.33,2 
COMPS,ioos:station:USF.COMPS:ANC:1,2009-06-20T18:18:00Z,28.1930,-82.7890,-1.0,32.36,2 
COMPS,ioos:station:USF.COMPS:ANC:1,2009-06-20T18:24:00Z,28.1930,-82.7890,-1.0,32.42,2 
COMPS,ioos:station:USF.COMPS:ANC:1,2009-06-20T18:30:00Z,28.1930,-82.7890,-1.0,32.5,2 
COMPS,ioos:station:USF.COMPS:ANC:1,2009-06-20T18:36:00Z,28.1930,-82.7890,-1.0,32.57,2 
COMPS,ioos:station:USF.COMPS:ANC:1,2009-06-20T18:42:00Z,28.1930,-82.7890,-1.0,32.62,2 
COMPS,ioos:station:USF.COMPS:ANC:1,2009-06-20T18:48:00Z,28.1930,-82.7890,-1.0,32.67,2 
COMPS,ioos:station:USF.COMPS:ANC:1,2009-06-20T18:54:00Z,28.1930,-82.7890,-1.0,32.72,2 
COMPS,ioos:station:USF.COMPS:ANC:1,2009-06-20T19:00:00Z,28.1930,-82.7890,-1.0,32.77,2 
COMPS,ioos:station:USF.COMPS:ANC:1,2009-06-20T19:06:00Z,28.1930,-82.7890,-1.0,32.83,2 
COMPS,ioos:station:USF.COMPS:ANC:1,2009-06-20T19:12:00Z,28.1930,-82.7890,-1.0,32.88,2 
COMPS,ioos:station:USF.COMPS:ANC:1,2009-06-20T19:18:00Z,28.1930,-82.7890,-1.0,32.94,2 
COMPS,ioos:station:USF.COMPS:ANC:1,2009-06-20T19:24:00Z,28.1930,-82.7890,-1.0,32.99,2 
COMPS,ioos:station:USF.COMPS:ANC:1,2009-06-20T19:30:00Z,28.1930,-82.7890,-1.0,33.06,2 
COMPS,ioos:station:USF.COMPS:ANC:1,2009-06-20T19:36:00Z,28.1930,-82.7890,-1.0,33.12,2 
COMPS,ioos:station:USF.COMPS:ANC:1,2009-06-20T19:42:00Z,28.1930,-82.7890,-1.0,33.19,2 
COMPS,ioos:station:USF.COMPS:ANC:1,2009-06-20T19:48:00Z,28.1930,-82.7890,-1.0,33.27,2 
COMPS,ioos:station:USF.COMPS:ANC:1,2009-06-20T19:54:00Z,28.1930,-82.7890,-1.0,33.34,2 
COMPS,ioos:station:USF.COMPS:ANC:1,2009-06-20T20:00:00Z,28.1930,-82.7890,-1.0,33.43,2 
COMPS,ioos:station:USF.COMPS:ANC:1,2009-06-20T20:06:00Z,28.1930,-82.7890,-1.0,33.51,2 
COMPS,ioos:station:USF.COMPS:ANC:1,2009-06-20T20:12:00Z,28.1930,-82.7890,-1.0,33.59,2 
COMPS,ioos:station:USF.COMPS:ANC:1,2009-06-20T20:18:00Z,28.1930,-82.7890,-1.0,33.66,2 
COMPS,ioos:station:USF.COMPS:ANC:1,2009-06-20T20:24:00Z,28.1930,-82.7890,-1.0,33.73,2 
COMPS,ioos:station:USF.COMPS:ANC:1,2009-06-20T20:30:00Z,28.1930,-82.7890,-1.0,33.79,2 
COMPS,ioos:station:USF.COMPS:ANC:1,2009-06-20T20:36:00Z,28.1930,-82.7890,-1.0,33.84,2 
COMPS,ioos:station:USF.COMPS:ANC:1,2009-06-20T20:42:00Z,28.1930,-82.7890,-1.0,33.89,2 
COMPS,ioos:station:USF.COMPS:ANC:1,2009-06-20T20:48:00Z,28.1930,-82.7890,-1.0,33.94,2 
COMPS,ioos:station:USF.COMPS:ANC:1,2009-06-20T20:54:00Z,28.1930,-82.7890,-1.0,33.98,2 
COMPS,ioos:station:USF.COMPS:ANC:1,2009-06-20T21:00:00Z,28.1930,-82.7890,-1.0,34.01,2 
COMPS,ioos:station:USF.COMPS:ANC:1,2009-06-20T21:06:00Z,28.1930,-82.7890,-1.0,34.06,2 
COMPS,ioos:station:USF.COMPS:ANC:1,2009-06-20T21:12:00Z,28.1930,-82.7890,-1.0,34.09,2 
COMPS,ioos:station:USF.COMPS:ANC:1,2009-06-20T21:18:00Z,28.1930,-82.7890,-1.0,34.12,2 
COMPS,ioos:station:USF.COMPS:ANC:1,2009-06-20T21:24:00Z,28.1930,-82.7890,-1.0,34.15,2 
COMPS,ioos:station:USF.COMPS:ANC:1,2009-06-20T21:30:00Z,28.1930,-82.7890,-1.0,34.16,2 
COMPS,ioos:station:USF.COMPS:ANC:1,2009-06-20T21:36:00Z,28.1930,-82.7890,-1.0,34.18,2 
COMPS,ioos:station:USF.COMPS:ANC:1,2009-06-20T21:42:00Z,28.1930,-82.7890,-1.0,34.19,2 
COMPS,ioos:station:USF.COMPS:ANC:1,2009-06-20T21:48:00Z,28.1930,-82.7890,-1.0,34.21,2 
COMPS,ioos:station:USF.COMPS:ANC:1,2009-06-20T21:54:00Z,28.1930,-82.7890,-1.0,34.22,2 
COMPS,ioos:station:USF.COMPS:ANC:1,2009-06-20T22:00:00Z,28.1930,-82.7890,-1.0,34.24,2 
COMPS,ioos:station:USF.COMPS:ANC:1,2009-06-20T22:06:00Z,28.1930,-82.7890,-1.0,34.25,2 
COMPS,ioos:station:USF.COMPS:ANC:1,2009-06-20T22:12:00Z,28.1930,-82.7890,-1.0,34.25,2 
COMPS,ioos:station:USF.COMPS:ANC:1,2009-06-20T22:18:00Z,28.1930,-82.7890,-1.0,34.26,2 
COMPS,ioos:station:USF.COMPS:ANC:1,2009-06-20T22:24:00Z,28.1930,-82.7890,-1.0,34.27,2 
COMPS,ioos:station:USF.COMPS:ANC:1,2009-06-20T22:30:00Z,28.1930,-82.7890,-1.0,34.26,2 
COMPS,ioos:station:USF.COMPS:ANC:1,2009-06-20T22:36:00Z,28.1930,-82.7890,-1.0,34.25,2 
COMPS,ioos:station:USF.COMPS:ANC:1,2009-06-20T22:42:00Z,28.1930,-82.7890,-1.0,34.24,2 
COMPS,ioos:station:USF.COMPS:ANC:1,2009-06-20T22:48:00Z,28.1930,-82.7890,-1.0,34.22,2 
COMPS,ioos:station:USF.COMPS:ANC:1,2009-06-20T22:54:00Z,28.1930,-82.7890,-1.0,34.2,2 
COMPS,ioos:station:USF.COMPS:ANC:1,2009-06-20T23:00:00Z,28.1930,-82.7890,-1.0,34.17,2 
COMPS,ioos:station:USF.COMPS:ANC:1,2009-06-20T23:06:00Z,28.1930,-82.7890,-1.0,34.13,2 
COMPS,ioos:station:USF.COMPS:ANC:1,2009-06-20T23:12:00Z,28.1930,-82.7890,-1.0,34.09,2 
COMPS,ioos:station:USF.COMPS:ANC:1,2009-06-20T23:18:00Z,28.1930,-82.7890,-1.0,34.06,2 
COMPS,ioos:station:USF.COMPS:ANC:1,2009-06-20T23:24:00Z,28.1930,-82.7890,-1.0,34.04,2 
COMPS,ioos:station:USF.COMPS:ANC:1,2009-06-20T23:30:00Z,28.1930,-82.7890,-1.0,34.02,2 
COMPS,ioos:station:USF.COMPS:ANC:1,2009-06-20T23:36:00Z,28.1930,-82.7890,-1.0,34.0,2 
COMPS,ioos:station:USF.COMPS:ANC:1,2009-06-20T23:42:00Z,28.1930,-82.7890,-1.0,33.98,2 
COMPS,ioos:station:USF.COMPS:ANC:1,2009-06-20T23:48:00Z,28.1930,-82.7890,-1.0,33.96,2 
COMPS,ioos:station:USF.COMPS:ANC:1,2009-06-20T23:54:00Z,28.1930,-82.7890,-1.0,33.94,2 
COMPS,ioos:station:USF.COMPS:ANC:1,2009-06-21T00:00:00Z,28.1930,-82.7890,-1.0,33.92,2 
COMPS,ioos:station:USF.COMPS:ANC:1,2009-06-21T00:06:00Z,28.1930,-82.7890,-1.0,33.91,2 
COMPS,ioos:station:USF.COMPS:ANC:1,2009-06-21T00:12:00Z,28.1930,-82.7890,-1.0,33.91,2 
COMPS,ioos:station:USF.COMPS:ANC:1,2009-06-21T00:18:00Z,28.1930,-82.7890,-1.0,33.9,2 
COMPS,ioos:station:USF.COMPS:ANC:1,2009-06-21T00:24:00Z,28.1930,-82.7890,-1.0,33.9,2 
COMPS,ioos:station:USF.COMPS:ANC:1,2009-06-21T00:30:00Z,28.1930,-82.7890,-1.0,33.89,2 
COMPS,ioos:station:USF.COMPS:ANC:1,2009-06-21T00:36:00Z,28.1930,-82.7890,-1.0,33.88,2 
COMPS,ioos:station:USF.COMPS:ANC:1,2009-06-21T00:42:00Z,28.1930,-82.7890,-1.0,33.89,2 
COMPS,ioos:station:USF.COMPS:ANC:1,2009-06-21T00:48:00Z,28.1930,-82.7890,-1.0,33.89,2 
COMPS,ioos:station:USF.COMPS:ANC:1,2009-06-21T00:54:00Z,28.1930,-82.7890,-1.0,33.88,2 
COMPS,ioos:station:USF.COMPS:ANC:1,2009-06-21T01:00:00Z,28.1930,-82.7890,-1.0,33.88,2 
COMPS,ioos:station:USF.COMPS:ANC:1,2009-06-21T01:06:00Z,28.1930,-82.7890,-1.0,33.87,2 
COMPS,ioos:station:USF.COMPS:ANC:1,2009-06-21T01:12:00Z,28.1930,-82.7890,-1.0,33.86,2 
COMPS,ioos:station:USF.COMPS:ANC:1,2009-06-21T01:18:00Z,28.1930,-82.7890,-1.0,33.84,2 
COMPS,ioos:station:USF.COMPS:ANC:1,2009-06-21T01:24:00Z,28.1930,-82.7890,-1.0,33.8,2 
COMPS,ioos:station:USF.COMPS:ANC:1,2009-06-21T01:30:00Z,28.1930,-82.7890,-1.0,33.76,2 
COMPS,ioos:station:USF.COMPS:ANC:1,2009-06-21T01:36:00Z,28.1930,-82.7890,-1.0,33.7,2 
COMPS,ioos:station:USF.COMPS:ANC:1,2009-06-21T01:42:00Z,28.1930,-82.7890,-1.0,33.56,2 
COMPS,ioos:station:USF.COMPS:ANC:1,2009-06-21T01:48:00Z,28.1930,-82.7890,-1.0,33.51,2 
COMPS,ioos:station:USF.COMPS:ANC:1,2009-06-21T01:54:00Z,28.1930,-82.7890,-1.0,33.49,2 
COMPS,ioos:station:USF.COMPS:ANC:1,2009-06-21T02:00:00Z,28.1930,-82.7890,-1.0,33.46,2 
COMPS,ioos:station:USF.COMPS:ANC:1,2009-06-21T02:06:00Z,28.1930,-82.7890,-1.0,33.43,2 
COMPS,ioos:station:USF.COMPS:ANC:1,2009-06-21T02:12:00Z,28.1930,-82.7890,-1.0,33.38,2 
COMPS,ioos:station:USF.COMPS:ANC:1,2009-06-21T02:18:00Z,28.1930,-82.7890,-1.0,33.33,2 
COMPS,ioos:station:USF.COMPS:ANC:1,2009-06-21T02:24:00Z,28.1930,-82.7890,-1.0,33.3,2 
COMPS,ioos:station:USF.COMPS:ANC:1,2009-06-21T02:30:00Z,28.1930,-82.7890,-1.0,33.26,2 
COMPS,ioos:station:USF.COMPS:ANC:1,2009-06-21T02:36:00Z,28.1930,-82.7890,-1.0,33.24,2 
COMPS,ioos:station:USF.COMPS:ANC:1,2009-06-21T02:42:00Z,28.1930,-82.7890,-1.0,33.23,2 
COMPS,ioos:station:USF.COMPS:ANC:1,2009-06-21T02:48:00Z,28.1930,-82.7890,-1.0,33.21,2 
COMPS,ioos:station:USF.COMPS:ANC:1,2009-06-21T02:54:00Z,28.1930,-82.7890,-1.0,33.22,2 
COMPS,ioos:station:USF.COMPS:ANC:1,2009-06-21T03:00:00Z,28.1930,-82.7890,-1.0,33.23,2 
COMPS,ioos:station:USF.COMPS:ANC:1,2009-06-21T03:06:00Z,28.1930,-82.7890,-1.0,33.22,2 
COMPS,ioos:station:USF.COMPS:ANC:1,2009-06-21T03:12:00Z,28.1930,-82.7890,-1.0,33.22,2 
COMPS,ioos:station:USF.COMPS:ANC:1,2009-06-21T03:18:00Z,28.1930,-82.7890,-1.0,33.23,2 
COMPS,ioos:station:USF.COMPS:ANC:1,2009-06-21T03:24:00Z,28.1930,-82.7890,-1.0,33.23,2 
COMPS,ioos:station:USF.COMPS:ANC:1,2009-06-21T03:30:00Z,28.1930,-82.7890,-1.0,33.22,2 
COMPS,ioos:station:USF.COMPS:ANC:1,2009-06-21T03:36:00Z,28.1930,-82.7890,-1.0,33.19,2 
COMPS,ioos:station:USF.COMPS:ANC:1,2009-06-21T03:42:00Z,28.1930,-82.7890,-1.0,33.13,2 
COMPS,ioos:station:USF.COMPS:ANC:1,2009-06-21T03:48:00Z,28.1930,-82.7890,-1.0,33.1,2 
COMPS,ioos:station:USF.COMPS:ANC:1,2009-06-21T03:54:00Z,28.1930,-82.7890,-1.0,33.07,2 
COMPS,ioos:station:USF.COMPS:ANC:1,2009-06-21T04:00:00Z,28.1930,-82.7890,-1.0,33.05,2 
COMPS,ioos:station:USF.COMPS:ANC:1,2009-06-21T04:06:00Z,28.1930,-82.7890,-1.0,33.03,2 
COMPS,ioos:station:USF.COMPS:ANC:1,2009-06-21T04:12:00Z,28.1930,-82.7890,-1.0,33.01,2 
COMPS,ioos:station:USF.COMPS:ANC:1,2009-06-21T04:18:00Z,28.1930,-82.7890,-1.0,33.0,2 
COMPS,ioos:station:USF.COMPS:ANC:1,2009-06-21T04:24:00Z,28.1930,-82.7890,-1.0,32.99,2 
COMPS,ioos:station:USF.COMPS:ANC:1,2009-06-21T04:30:00Z,28.1930,-82.7890,-1.0,32.98,2 
COMPS,ioos:station:USF.COMPS:ANC:1,2009-06-21T04:36:00Z,28.1930,-82.7890,-1.0,32.95,2 
COMPS,ioos:station:USF.COMPS:ANC:1,2009-06-21T04:42:00Z,28.1930,-82.7890,-1.0,32.93,2 
COMPS,ioos:station:USF.COMPS:ANC:1,2009-06-21T04:48:00Z,28.1930,-82.7890,-1.0,32.91,2 
COMPS,ioos:station:USF.COMPS:ANC:1,2009-06-21T04:54:00Z,28.1930,-82.7890,-1.0,32.88,2 
COMPS,ioos:station:USF.COMPS:ANC:1,2009-06-21T05:00:00Z,28.1930,-82.7890,-1.0,32.84,2 
COMPS,ioos:station:USF.COMPS:ANC:1,2009-06-21T05:06:00Z,28.1930,-82.7890,-1.0,32.78,2 
COMPS,ioos:station:USF.COMPS:ANC:1,2009-06-21T05:12:00Z,28.1930,-82.7890,-1.0,32.73,2 
COMPS,ioos:station:USF.COMPS:ANC:1,2009-06-21T05:18:00Z,28.1930,-82.7890,-1.0,32.69,2 
COMPS,ioos:station:USF.COMPS:ANC:1,2009-06-21T05:24:00Z,28.1930,-82.7890,-1.0,32.64,2 
COMPS,ioos:station:USF.COMPS:ANC:1,2009-06-21T05:30:00Z,28.1930,-82.7890,-1.0,32.59,2 
COMPS,ioos:station:USF.COMPS:ANC:1,2009-06-21T05:36:00Z,28.1930,-82.7890,-1.0,32.52,2 
COMPS,ioos:station:USF.COMPS:ANC:1,2009-06-21T05:42:00Z,28.1930,-82.7890,-1.0,32.47,2 
COMPS,ioos:station:USF.COMPS:ANC:1,2009-06-21T05:48:00Z,28.1930,-82.7890,-1.0,32.44,2 
COMPS,ioos:station:USF.COMPS:ANC:1,2009-06-21T05:54:00Z,28.1930,-82.7890,-1.0,32.41,2 
COMPS,ioos:station:USF.COMPS:ANC:1,2009-06-21T07:00:00Z,28.1930,-82.7890,-1.0,32.04,2 
COMPS,ioos:station:USF.COMPS:ANC:1,2009-06-21T07:06:00Z,28.1930,-82.7890,-1.0,32.01,2 
COMPS,ioos:station:USF.COMPS:ANC:1,2009-06-21T07:12:00Z,28.1930,-82.7890,-1.0,31.97,2 
COMPS,ioos:station:USF.COMPS:ANC:1,2009-06-21T07:18:00Z,28.1930,-82.7890,-1.0,31.94,2 
COMPS,ioos:station:USF.COMPS:ANC:1,2009-06-21T07:24:00Z,28.1930,-82.7890,-1.0,31.9,2 
COMPS,ioos:station:USF.COMPS:ANC:1,2009-06-21T07:30:00Z,28.1930,-82.7890,-1.0,31.85,2 
COMPS,ioos:station:USF.COMPS:ANC:1,2009-06-21T07:36:00Z,28.1930,-82.7890,-1.0,31.81,2 
COMPS,ioos:station:USF.COMPS:ANC:1,2009-06-21T07:42:00Z,28.1930,-82.7890,-1.0,31.77,2 
COMPS,ioos:station:USF.COMPS:ANC:1,2009-06-21T07:48:00Z,28.1930,-82.7890,-1.0,31.74,2 
COMPS,ioos:station:USF.COMPS:ANC:1,2009-06-21T07:54:00Z,28.1930,-82.7890,-1.0,31.71,2 
COMPS,ioos:station:USF.COMPS:ANC:1,2009-06-21T08:00:00Z,28.1930,-82.7890,-1.0,31.66,2 
COMPS,ioos:station:USF.COMPS:ANC:1,2009-06-21T08:06:00Z,28.1930,-82.7890,-1.0,31.62,2 
COMPS,ioos:station:USF.COMPS:ANC:1,2009-06-21T08:12:00Z,28.1930,-82.7890,-1.0,31.59,2 
COMPS,ioos:station:USF.COMPS:ANC:1,2009-06-21T08:18:00Z,28.1930,-82.7890,-1.0,31.55,2 
COMPS,ioos:station:USF.COMPS:ANC:1,2009-06-21T08:24:00Z,28.1930,-82.7890,-1.0,31.54,2 
COMPS,ioos:station:USF.COMPS:ANC:1,2009-06-21T08:30:00Z,28.1930,-82.7890,-1.0,31.5,2 
COMPS,ioos:station:USF.COMPS:ANC:1,2009-06-21T08:36:00Z,28.1930,-82.7890,-1.0,31.48,2 
COMPS,ioos:station:USF.COMPS:ANC:1,2009-06-21T08:42:00Z,28.1930,-82.7890,-1.0,31.43,2 
COMPS,ioos:station:USF.COMPS:ANC:1,2009-06-21T08:48:00Z,28.1930,-82.7890,-1.0,31.38,2 
COMPS,ioos:station:USF.COMPS:ANC:1,2009-06-21T08:54:00Z,28.1930,-82.7890,-1.0,31.32,2 
COMPS,ioos:station:USF.COMPS:ANC:1,2009-06-21T09:00:00Z,28.1930,-82.7890,-1.0,31.28,2 
COMPS,ioos:station:USF.COMPS:ANC:1,2009-06-21T09:06:00Z,28.1930,-82.7890,-1.0,31.26,2 
COMPS,ioos:station:USF.COMPS:ANC:1,2009-06-21T09:12:00Z,28.1930,-82.7890,-1.0,31.24,2 
COMPS,ioos:station:USF.COMPS:ANC:1,2009-06-21T09:18:00Z,28.1930,-82.7890,-1.0,31.24,2 
COMPS,ioos:station:USF.COMPS:ANC:1,2009-06-21T09:24:00Z,28.1930,-82.7890,-1.0,31.22,2 
COMPS,ioos:station:USF.COMPS:ANC:1,2009-06-21T09:30:00Z,28.1930,-82.7890,-1.0,31.2,2 
COMPS,ioos:station:USF.COMPS:ANC:1,2009-06-21T09:36:00Z,28.1930,-82.7890,-1.0,31.19,2 
COMPS,ioos:station:USF.COMPS:ANC:1,2009-06-21T09:42:00Z,28.1930,-82.7890,-1.0,31.17,2 
COMPS,ioos:station:USF.COMPS:ANC:1,2009-06-21T09:48:00Z,28.1930,-82.7890,-1.0,31.17,2 
COMPS,ioos:station:USF.COMPS:ANC:1,2009-06-21T09:54:00Z,28.1930,-82.7890,-1.0,31.15,2 
COMPS,ioos:station:USF.COMPS:ANC:1,2009-06-21T10:00:00Z,28.1930,-82.7890,-1.0,31.14,2 
COMPS,ioos:station:USF.COMPS:ANC:1,2009-06-21T10:06:00Z,28.1930,-82.7890,-1.0,31.13,2 
COMPS,ioos:station:USF.COMPS:ANC:1,2009-06-21T10:12:00Z,28.1930,-82.7890,-1.0,31.13,2 
COMPS,ioos:station:USF.COMPS:ANC:1,2009-06-21T10:18:00Z,28.1930,-82.7890,-1.0,31.15,2 
COMPS,ioos:station:USF.COMPS:ANC:1,2009-06-21T10:24:00Z,28.1930,-82.7890,-1.0,31.19,2 
COMPS,ioos:station:USF.COMPS:ANC:1,2009-06-21T10:30:00Z,28.1930,-82.7890,-1.0,31.23,2 
COMPS,ioos:station:USF.COMPS:ANC:1,2009-06-21T10:36:00Z,28.1930,-82.7890,-1.0,31.28,2 
COMPS,ioos:station:USF.COMPS:ANC:1,2009-06-21T10:42:00Z,28.1930,-82.7890,-1.0,31.33,2 
COMPS,ioos:station:USF.COMPS:ANC:1,2009-06-21T10:48:00Z,28.1930,-82.7890,-1.0,31.39,2 
COMPS,ioos:station:USF.COMPS:ANC:1,2009-06-21T10:54:00Z,28.1930,-82.7890,-1.0,31.45,2 
COMPS,ioos:station:USF.COMPS:ANC:1,2009-06-21T11:00:00Z,28.1930,-82.7890,-1.0,31.51,2 
COMPS,ioos:station:USF.COMPS:ANC:1,2009-06-21T11:06:00Z,28.1930,-82.7890,-1.0,31.57,2 
COMPS,ioos:station:USF.COMPS:ANC:1,2009-06-21T11:12:00Z,28.1930,-82.7890,-1.0,31.62,2 
COMPS,ioos:station:USF.COMPS:ANC:1,2009-06-21T11:18:00Z,28.1930,-82.7890,-1.0,31.66,2 
COMPS,ioos:station:USF.COMPS:ANC:1,2009-06-21T11:24:00Z,28.1930,-82.7890,-1.0,31.69,2 
COMPS,ioos:station:USF.COMPS:ANC:1,2009-06-21T11:30:00Z,28.1930,-82.7890,-1.0,31.72,2 
COMPS,ioos:station:USF.COMPS:ANC:1,2009-06-21T11:36:00Z,28.1930,-82.7890,-1.0,31.74,2 
COMPS,ioos:station:USF.COMPS:ANC:1,2009-06-21T11:42:00Z,28.1930,-82.7890,-1.0,31.77,2 
COMPS,ioos:station:USF.COMPS:ANC:1,2009-06-21T11:48:00Z,28.1930,-82.7890,-1.0,31.78,2 
COMPS,ioos:station:USF.COMPS:ANC:1,2009-06-21T11:54:00Z,28.1930,-82.7890,-1.0,31.8,2 
COMPS,ioos:station:USF.COMPS:ANC:1,2009-06-21T12:00:00Z,28.1930,-82.7890,-1.0,31.81,2 
COMPS,ioos:station:USF.COMPS:ANC:1,2009-06-21T12:06:00Z,28.1930,-82.7890,-1.0,31.83,2 
COMPS,ioos:station:USF.COMPS:ANC:1,2009-06-21T12:12:00Z,28.1930,-82.7890,-1.0,31.84,2 
COMPS,ioos:station:USF.COMPS:ANC:1,2009-06-21T12:18:00Z,28.1930,-82.7890,-1.0,31.84,2 
COMPS,ioos:station:USF.COMPS:ANC:1,2009-06-21T12:24:00Z,28.1930,-82.7890,-1.0,31.85,2 
COMPS,ioos:station:USF.COMPS:ANC:1,2009-06-21T12:30:00Z,28.1930,-82.7890,-1.0,31.85,2 
COMPS,ioos:station:USF.COMPS:ANC:1,2009-06-21T12:36:00Z,28.1930,-82.7890,-1.0,31.86,2 
COMPS,ioos:station:USF.COMPS:ANC:1,2009-06-21T12:42:00Z,28.1930,-82.7890,-1.0,31.86,2 
COMPS,ioos:station:USF.COMPS:ANC:1,2009-06-21T12:48:00Z,28.1930,-82.7890,-1.0,31.86,2 
COMPS,ioos:station:USF.COMPS:ANC:1,2009-06-21T12:54:00Z,28.1930,-82.7890,-1.0,31.86,2 
COMPS,ioos:station:USF.COMPS:ANC:1,2009-06-21T13:00:00Z,28.1930,-82.7890,-1.0,31.86,2 
COMPS,ioos:station:USF.COMPS:ANC:1,2009-06-21T13:06:00Z,28.1930,-82.7890,-1.0,31.86,2 
COMPS,ioos:station:USF.COMPS:ANC:1,2009-06-21T13:12:00Z,28.1930,-82.7890,-1.0,31.86,2 
COMPS,ioos:station:USF.COMPS:ANC:1,2009-06-21T13:18:00Z,28.1930,-82.7890,-1.0,31.85,2 
COMPS,ioos:station:USF.COMPS:ANC:1,2009-06-21T13:24:00Z,28.1930,-82.7890,-1.0,31.86,2 
COMPS,ioos:station:USF.COMPS:ANC:1,2009-06-21T13:30:00Z,28.1930,-82.7890,-1.0,31.92,2 
COMPS,ioos:station:USF.COMPS:ANC:1,2009-06-21T13:36:00Z,28.1930,-82.7890,-1.0,32.03,2 
COMPS,ioos:station:USF.COMPS:ANC:1,2009-06-21T13:42:00Z,28.1930,-82.7890,-1.0,32.14,2 
COMPS,ioos:station:USF.COMPS:ANC:1,2009-06-21T13:48:00Z,28.1930,-82.7890,-1.0,32.22,2 
COMPS,ioos:station:USF.COMPS:ANC:1,2009-06-21T13:54:00Z,28.1930,-82.7890,-1.0,32.3,2 
COMPS,ioos:station:USF.COMPS:ANC:1,2009-06-21T14:00:00Z,28.1930,-82.7890,-1.0,32.34,2 
COMPS,ioos:station:USF.COMPS:ANC:1,2009-06-21T14:06:00Z,28.1930,-82.7890,-1.0,32.36,2 
COMPS,ioos:station:USF.COMPS:ANC:1,2009-06-21T14:12:00Z,28.1930,-82.7890,-1.0,32.37,2 
COMPS,ioos:station:USF.COMPS:ANC:1,2009-06-21T14:18:00Z,28.1930,-82.7890,-1.0,32.35,2 
COMPS,ioos:station:USF.COMPS:ANC:1,2009-06-21T14:24:00Z,28.1930,-82.7890,-1.0,32.33,2 
COMPS,ioos:station:USF.COMPS:ANC:1,2009-06-21T14:30:00Z,28.1930,-82.7890,-1.0,32.31,2 
COMPS,ioos:station:USF.COMPS:ANC:1,2009-06-21T14:36:00Z,28.1930,-82.7890,-1.0,32.29,2 
COMPS,ioos:station:USF.COMPS:ANC:1,2009-06-21T14:42:00Z,28.1930,-82.7890,-1.0,32.27,2 
COMPS,ioos:station:USF.COMPS:ANC:1,2009-06-21T14:48:00Z,28.1930,-82.7890,-1.0,32.26,2 
COMPS,ioos:station:USF.COMPS:ANC:1,2009-06-21T14:54:00Z,28.1930,-82.7890,-1.0,32.25,2 
COMPS,ioos:station:USF.COMPS:ANC:1,2009-06-21T15:00:00Z,28.1930,-82.7890,-1.0,32.24,2 
COMPS,ioos:station:USF.COMPS:ANC:1,2009-06-21T15:06:00Z,28.1930,-82.7890,-1.0,32.25,2 
COMPS,ioos:station:USF.COMPS:ANC:1,2009-06-21T15:12:00Z,28.1930,-82.7890,-1.0,32.28,2 
COMPS,ioos:station:USF.COMPS:ANC:1,2009-06-21T15:18:00Z,28.1930,-82.7890,-1.0,32.31,2 
COMPS,ioos:station:USF.COMPS:ANC:1,2009-06-21T15:24:00Z,28.1930,-82.7890,-1.0,32.35,2 